Regional Weather Roundup
Issued by NWS Grand Forks, ND

Home | Current Version | Previous Version | Graphics & Text | Print | Product List | Glossary On
Versions: 1 2 3 4 5 6 7 8 9 10 11 12 13 14 15 16 17 18 19 20 21 22 23 24 25 26 27 28 29 30 31 32 33 34 35 36 37 38 39 40 41 42 43 44 45 46 47 48 49 50
510
ASUS43 KFGF 170631
RWRFGF
PRAIRIE TO PINES  WEATHER ROUNDUP
NATIONAL WEATHER SERVICE EASTERN NORTH DAKOTA/GRAND FORKS ND
1200 AM CST WED JAN 17 2018

 **SATELLITE DATA USED TO AUGMENT SKY COVER AT AUTOMATED STATIONS**
 *****  WEATHER ACROSS EASTERN NORTH DAKOTA  *****

CITY           SKY/WX    TMP DP  RH WIND       PRES   REMARKS
GRAND FORKS    FAIR       3  -3  76 S14       30.25F WCI -15
6HR MIN TEMP:   3; 6HR MAX TEMP:   5;

GRAND FRKS AFB FAIR       8  -3  61 SW13      30.23F WCI  -8
GRAND FRKS NWS   N/A      3 N/A N/A S18         N/A  WCI -17
DEVILS LAKE    FAIR       8  -1  66 SW14      30.17F WCI  -8
6HR MIN TEMP:   4; 6HR MAX TEMP:   8;

FARGO          FAIR       5  -3  69 S16       30.33F WCI -14
WAHPETON ARPT  FAIR       3  -4  72 S8        30.36F WCI -10
$$

 ***** WEATHER ACROSS CENTRAL AND WESTERN NORTH DAKOTA  *****

CITY           SKY/WX    TMP DP  RH WIND       PRES   REMARKS
BISMARCK       FAIR       5  -4  66 CALM      30.24F
6HR MIN TEMP:   1; 6HR MAX TEMP:  10;

MINOT          FAIR      13  -1  54 S22       30.07F WCI  -6
6HR MIN TEMP:  13; 6HR MAX TEMP:  15;

JAMESTOWN      FAIR       5  -2  72 S9        30.22F WCI  -9
6HR MIN TEMP:   4; 6HR MAX TEMP:   8;

MINOT AFB      FAIR      11  -1  57 SW7       30.07F WCI   1
GARRISON         N/A      5  -2  72 S9        30.15F WCI  -9
WILLISTON      FAIR       5  -3  69 S6        30.12F WCI  -6
6HR MIN TEMP:   0; 6HR MAX TEMP:  10;

DICKINSON      FAIR      11  -1  58 SW9       30.12S WCI  -2
6HR MIN TEMP:   8; 6HR MAX TEMP:  12;

HETTINGER      FAIR       5  -3  69 SW6       30.17F WCI  -6
6HR MIN TEMP:   0; 6HR MAX TEMP:   8;

$$

 *****  OTHER AIRPORT OBSERVATIONS IN OUR AREA  *****

CITY           SKY/WX    TMP DP  RH WIND       PRES   REMARKS
WALHALLA       FAIR      12  -4  48 CALM      30.11F
GRAFTON AIRPOR FAIR       5  -2  72 S12       30.22F WCI -11
VALLEY CITY AR FLURRIES   5  -2  72 SW21      30.25F WCI -16
CANDO          FAIR       5  -2  72 SW9       30.15F WCI  -9
CAVALIER APRT    N/A      9  -2  61 S13       30.14F WCI  -7
GWINNER          N/A      5   0  78 SW21      30.30F WCI -16
SHEYENNE NWR     N/A      5  -3  69 SW13      29.95S WCI -12
ROLLA          FAIR       9  -4  56 SW14G20   30.05F WCI  -8
 ***** THE ABOVE OBSERVATIONS ARE NON NWS ARE NOT QUALITY
       CONTROLLED AND MAY MIS-REPORT RAIN FOR SNOW...
$$

  *****  WEATHER ACROSS NORTHERN MINNESOTA  *****

CITY           SKY/WX    TMP DP  RH WIND       PRES   REMARKS
FLAG ISLAND    FAIR       7  -2  66 SW15G22   30.09F WCI -11
WARROAD        FAIR       7   0  72 SW17G25   30.14F WCI -12
ROSEAU         FAIR       9   1  72 SW16      30.15F WCI  -9
HALLOCK        FAIR       3   0  85 S21       30.18F WCI -18
THF RVR FALLS  FLURRIES   4  -2  76 SW21      30.24F WCI -17
6HR MIN TEMP:  -1; 6HR MAX TEMP:   4; 6HR PCP: TRACE;

BAUDETTE       FAIR       6  -4  63 SW17      30.15F WCI -13
6HR MIN TEMP:   3; 6HR MAX TEMP:   6;

WASKISH        FAIR       7  -2  66 SW8       30.21F WCI  -6
CROOKSTON      FAIR       5   0  78 S21G26    30.27F WCI -16
STEPHEN NDAWN    N/A      3  -2  78 S20         N/A  WCI -18
GREENBUSH NDAW   N/A      5   0  78 SW22        N/A  WCI -16
$$
  *****  WEATHER ACROSS CENTRAL AND WEST MINNESOTA  *****

CITY           SKY/WX    TMP DP  RH WIND       PRES   REMARKS
FOSSTON        FAIR       1  -6  71 S18       30.27F WCI -19
BEMIDJI        FAIR       4  -5  67 SW8       30.25F WCI  -9
6HR MIN TEMP:   2; 6HR MAX TEMP:   6;

PARK RAPIDS    FAIR       0  -6  76 SW8       30.30F WCI -14
6HR MIN TEMP:  -1; 6HR MAX TEMP:   4;

ELBOW LAKE     FAIR       0  -4  81 S9        30.38F WCI -15
6HR MIN TEMP:  -3; 6HR MAX TEMP:   2;

WADENA         FAIR      -2  -8  78 S3        30.33F
DETROIT LAKES  FAIR       1  -4  78 S6        30.31F WCI -10
MOORHEAD       FAIR       3  -4  72 S12G17    30.34F WCI -13
FERGUS FALLS   FAIR       1  -6  71 S8        30.40F WCI -12
MORRIS MN      FAIR       1  -6  71 S9        30.39F WCI -14
STAPLES        FAIR       0  -6  78 S5        30.35F WCI -10
$$
  *****  WEATHER ELSEWHERE ACROSS MINNESOTA  *****

CITY           SKY/WX    TMP DP  RH WIND       PRES   REMARKS
DULUTH         CLOUDY     4  -3  73 W14       30.30F WCI -14
6HR MIN TEMP:   2; 6HR MAX TEMP:   5;

INTRNTL FALLS  FAIR       7  -6  55 SW13      30.18F WCI  -9
6HR MIN TEMP:   5; 6HR MAX TEMP:   7;

ELY            FAIR       7   0  72 SW9       30.20F WCI  -7
CLOQUET        FAIR       5  -4  66 SW5       30.31F WCI  -4
WHEATON        FAIR       3  -6  66 SE9       30.40F WCI -11
BRAINERD       FAIR       1  -5  75 SW8       30.37F WCI -13
6HR MIN TEMP:   1; 6HR MAX TEMP:   4;

HIBBING        FAIR       2  -3  80 CALM      30.28F
6HR MIN TEMP:   2; 6HR MAX TEMP:   4;

ALEXANDRIA     FAIR       2  -4  76 SW13      30.37F WCI -15
6HR MIN TEMP:  -2; 6HR MAX TEMP:   3;

SAINT CLOUD    FAIR      -4  -7  87 S6        30.45F WCI -16
6HR MIN TEMP:  -7; 6HR MAX TEMP:   3;

MINNEAPOLIS    FAIR      -1  -4  87 SW6       30.52F WCI -13
6HR MIN TEMP:  -1; 6HR MAX TEMP:   3;

$$

  *****  WEATHER ACROSS SOUTH DAKOTA  *****

CITY           SKY/WX    TMP DP  RH WIND       PRES   REMARKS
SIOUX FALLS    FAIR       5  -1  76 S10       30.47F WCI -10
6HR MIN TEMP:   0; 6HR MAX TEMP:   5;

BROOKINGS      FAIR      -1  -5  82 S9        30.43F WCI -16
WATERTOWN      FAIR       1  -3  83 S9        30.37F WCI -14
6HR MIN TEMP:  -1; 6HR MAX TEMP:   2;

HURON          FAIR       3  -2  79 S10       30.41F WCI -12
6HR MIN TEMP:   1; 6HR MAX TEMP:   5;

SISSETON         N/A     11  -1  58 S9        30.36F WCI  -2
ABERDEEN       FAIR       2  -3  80 S13       30.37F WCI -15
6HR MIN TEMP:   2; 6HR MAX TEMP:   7;

MITCHELL       FAIR       4  -2  76 S12       30.44F WCI -12
PIERRE         FAIR       6   1  80 SE7       30.29F WCI  -6
6HR MIN TEMP:   4; 6HR MAX TEMP:  10;

MOBRIDGE       FAIR       7   0  73 SE8       30.23F WCI  -6
RAPID CITY     FAIR      13   4  67 E3        30.17F
6HR MIN TEMP:  11; 6HR MAX TEMP:  19;

$$

  *****  SOME WEATHER IN NEARBY STATES *****

CITY           SKY/WX    TMP DP  RH WIND       PRES   REMARKS
GLASGOW MT     FAIR      -1  -5  82 NW6       30.11R WCI -13
6HR MIN TEMP:  -1; 6HR MAX TEMP:   8;

GREAT FALLS MT FAIR      37  25  61 SW21      30.16R
6HR MIN TEMP:  36; 6HR MAX TEMP:  40;

CHEYENNE WY    FAIR      16   4  59 SW6       30.19F WCI   7
6HR MIN TEMP:  15; 6HR MAX TEMP:  23;

SCOTTSBLUFF NE FAIR      10   2  69 CALM      30.25S
6HR MIN TEMP:   6; 6HR MAX TEMP:  13;

OMAHA NE       FAIR       1  -2  87 SE8       30.64F WCI -13
6HR MIN TEMP:   1; 6HR MAX TEMP:   9;

DES MOINES IA  FAIR      -1  -7  75 SW6       30.63F WCI -13
6HR MIN TEMP:  -2; 6HR MAX TEMP:   3;

DAVENPORT IA   FAIR       2  -3  80 W10       30.62S WCI -14
6HR MIN TEMP:   2; 6HR MAX TEMP:  11;

CHICAGO IL     FAIR      12   7  80 NW8       30.51F WCI   0
6HR MIN TEMP:  12; 6HR MAX TEMP:  20;

EAU CLAIRE WI  FAIR      -3  -7  82 SW8       30.50F WCI -18
6HR MIN TEMP:  -3; 6HR MAX TEMP:   4;

LA CROSSE WI   FAIR       0  -6  76 SW5       30.57F WCI -10
6HR MIN TEMP:  -2; 6HR MAX TEMP:   9;

$$

  *****  SOME NATIONAL WEATHER *****

CITY           SKY/WX    TMP DP  RH WIND       PRES   REMARKS
LA GUARDIA NY  CLOUDY    35  31  85 NE5       30.30F
6HR MIN TEMP:  32; 6HR MAX TEMP:  35;

RALEIGH NC     CLOUDY    36  24  62 CALM      30.28F
6HR MIN TEMP:  34; 6HR MAX TEMP:  39;

ATLANTA GA     LGT SNOW  24  21  88 NW16      30.35F FOG     WCI  11
6HR MIN TEMP:  25; 6HR MAX TEMP:  41; 6HR PCP:  0.01;

NEW ORLEANS LA LGTSLEET  26  22  84 N14G24    30.57S WCI  14
6HR MIN TEMP:  26; 6HR MAX TEMP:  35; 6HR PCP:  0.05;

OKLAHOMA CITY  FAIR       5  -2  72 SW3       30.71S
6HR MIN TEMP:   5; 6HR MAX TEMP:  16;

ALBUQUERQUE NM FAIR      25  15  66 CALM      30.41S
6HR MIN TEMP:  24; 6HR MAX TEMP:  34;

SALT LAKE CITY MOCLDY    38  30  73 SW6       30.33R
6HR MIN TEMP:  38; 6HR



USA.gov is the U.S. government's official web portal to all federal, state and local government web resources and services.